Private Wetterstation Wechselburg
Wetterdaten: Mittwoch / Donnerstag, 16.04.2015
Datum Zeit Temp. +2m Bodentemp. Temp.+5cm Temp. Wind Windchill X Diff Temp. Feuchte +2m Feuchte +5cm Sonnenschein Luftdruck Regen Wind Richtung Richtung Sonnenschein UV Taupunkt Windchill Windben
15.04.2015 01:00 11,9 C 21,1 C 9,7 C 11,4 C 10,4 C 0,0 C 69 % 76 % 0 % 1021,9 hPa 0,0 l/m 0,0 km/h (0 Bft) O-NO 67 0 min 0,6 UV-I 6,4 C 10,4 C 0,0 km/h (0 Bft)
15.04.2015 01:05 11,6 C 21,1 C 9,3 C 11,1 C 10,2 C 0,0 C 70 % 76 % 0 % 1021,9 hPa 0,0 l/m 0,2 km/h (0 Bft) O-NO 67 0 min 0,6 UV-I 6,3 C 10,2 C 2,1 km/h (1 Bft)
15.04.2015 01:10 11,5 C 21,1 C 9,3 C 11,1 C 10,2 C 0,0 C 70 % 77 % 0 % 1021,9 hPa 0,0 l/m 0,3 km/h (0 Bft) O-NO 67 0 min 0,9 UV-I 6,2 C 10,2 C 0,0 km/h (0 Bft)
15.04.2015 01:15 11,2 C 21,1 C 9,2 C 10,8 C 9,9 C 0,0 C 70 % 77 % 0 % 1021,9 hPa 0,0 l/m 0,3 km/h (0 Bft) O-NO 67 0 min 1,2 UV-I 5,9 C 9,9 C 0,0 km/h (0 Bft)
15.04.2015 01:20 11,1 C 21,1 C 9,0 C 10,7 C 9,8 C 0,0 C 71 % 78 % 0 % 1021,4 hPa 0,0 l/m 0,0 km/h (0 Bft) O-NO 67 0 min 0,9 UV-I 6,0 C 9,8 C 0,0 km/h (0 Bft)
15.04.2015 01:25 10,8 C 21,1 C 8,8 C 10,4 C 9,6 C 0,0 C 71 % 77 % 0 % 1021,4 hPa 0,0 l/m 0,0 km/h (0 Bft) O 90 0 min 0,6 UV-I 5,8 C 9,6 C 0,0 km/h (0 Bft)
15.04.2015 01:30 10,8 C 21,1 C 8,8 C 10,4 C 9,5 C 0,0 C 72 % 78 % 0 % 1021,4 hPa 0,0 l/m 0,0 km/h (0 Bft) O 90 0 min 0,8 UV-I 6,0 C 9,5 C 0,0 km/h (0 Bft)
15.04.2015 01:35 10,6 C 21,1 C 8,7 C 10,2 C 9,3 C 0,0 C 73 % 78 % 0 % 1021,4 hPa 0,0 l/m 0,0 km/h (0 Bft) NO 45 0 min 1,3 UV-I 6,0 C 9,3 C 0,0 km/h (0 Bft)
15.04.2015 01:40 10,7 C 21,1 C 8,5 C 10,3 C 9,4 C 0,0 C 73 % 79 % 0 % 1021,1 hPa 0,0 l/m 0,3 km/h (0 Bft) O 90 0 min 1,2 UV-I 6,1 C 9,4 C 0,0 km/h (0 Bft)
15.04.2015 01:45 10,7 C 21,0 C 8,6 C 10,3 C 9,5 C 0,0 C 73 % 79 % 0 % 1021,1 hPa 0,0 l/m 0,3 km/h (0 Bft) NO 45 0 min 1,5 UV-I 6,1 C 9,5 C 0,0 km/h (0 Bft)
15.04.2015 01:50 10,7 C 21,1 C 8,7 C 10,3 C 9,6 C 0,0 C 73 % 80 % 0 % 1021,1 hPa 0,0 l/m 0,3 km/h (0 Bft) O-NO 67 0 min 1,8 UV-I 6,1 C 9,6 C 0,0 km/h (0 Bft)
15.04.2015 01:55 10,7 C 21,0 C 8,8 C 10,4 C 9,9 C 0,0 C 73 % 80 % 0 % 1021,1 hPa 0,0 l/m 0,5 km/h (0 Bft) NO 45 0 min 3,0 UV-I 6,1 C 9,9 C 0,0 km/h (0 Bft)
15.04.2015 02:00 10,6 C 21,0 C 8,8 C 10,4 C 9,9 C 0,0 C 73 % 80 % 0 % 1020,8 hPa 0,0 l/m 0,3 km/h (0 Bft) NO 45 0 min 4,0 UV-I 6,0 C 9,9 C 0,0 km/h (0 Bft)
15.04.2015 02:05 10,7 C 21,0 C 8,8 C 10,4 C 9,7 C 0,0 C 74 % 80 % 0 % 1020,8 hPa 0,0 l/m 0,3 km/h (0 Bft) S 180 0 min 3,7 UV-I 6,3 C 9,7 C 0,0 km/h (0 Bft)
15.04.2015 02:10 10,8 C 21,0 C 8,8 C 10,5 C 9,9 C 0,0 C 74 % 80 % 0 % 1020,8 hPa 0,0 l/m 0,6 km/h (0 Bft) O 90 0 min 2,9 UV-I 6,4 C 9,9 C 0,0 km/h (0 Bft)
15.04.2015 02:15 10,7 C 21,0 C 8,8 C 10,4 C 9,8 C 0,0 C 74 % 80 % 0 % 1020,8 hPa 0,0 l/m 0,3 km/h (0 Bft) O 90 0 min 3,9 UV-I 6,3 C 9,8 C 0,0 km/h (0 Bft)
15.04.2015 02:20 10,6 C 21,0 C 8,6 C 10,3 C 9,7 C 0,0 C 74 % 80 % 0 % 1020,9 hPa 0,0 l/m 0,0 km/h (0 Bft) O-NO 67 0 min 3,4 UV-I 6,2 C 9,7 C 0,0 km/h (0 Bft)
15.04.2015 02:25 10,5 C 21,0 C 8,5 C 10,2 C 9,7 C 0,0 C 74 % 80 % 0 % 1020,9 hPa 0,0 l/m 0,2 km/h (0 Bft) NO 45 0 min 2,3 UV-I 6,1 C 9,7 C 2,7 km/h (1 Bft)
15.04.2015 02:30 10,4 C 21,0 C 8,4 C 10,2 C 9,7 C 0,0 C 74 % 81 % 0 % 1020,9 hPa 0,0 l/m 0,5 km/h (0 Bft) O-NO 67 0 min 2,0 UV-I 6,0 C 9,7 C 0,0 km/h (0 Bft)
15.04.2015 02:35 10,5 C 21,0 C 8,7 C 10,2 C 9,7 C 0,0 C 75 % 81 % 0 % 1020,9 hPa 0,0 l/m 1,0 km/h (0 Bft) O 90 0 min 2,8 UV-I 6,3 C 9,7 C 1,6 km/h (1 Bft)
15.04.2015 02:40 10,5 C 20,9 C 8,9 C 10,3 C 9,8 C 0,0 C 75 % 81 % 0 % 1020,4 hPa 0,0 l/m 0,5 km/h (0 Bft) O 90 0 min 3,7 UV-I 6,3 C 9,8 C 0,0 km/h (0 Bft)
15.04.2015 02:45 10,7 C 20,9 C 8,8 C 10,4 C 9,8 C 0,0 C 75 % 81 % 0 % 1020,4 hPa 0,0 l/m 0,5 km/h (0 Bft) S 180 0 min 3,7 UV-I 6,5 C 9,8 C 1,6 km/h (1 Bft)
15.04.2015 02:50 10,7 C 20,9 C 9,1 C 10,4 C 9,9 C 0,0 C 75 % 81 % 0 % 1020,4 hPa 0,0 l/m 0,5 km/h (0 Bft) W-NW 292 0 min 5,6 UV-I 6,5 C 9,9 C 0,0 km/h (0 Bft)
15.04.2015 02:55 10,7 C 20,9 C 8,9 C 10,5 C 10,0 C 0,0 C 75 % 81 % 0 % 1020,4 hPa 0,0 l/m 0,5 km/h (0 Bft) O-SO 112 0 min 6,0 UV-I 6,5 C 10,0 C 0,0 km/h (0 Bft)
15.04.2015 03:00 10,7 C 20,9 C 8,8 C 10,4 C 9,9 C 0,0 C 75 % 81 % 0 % 1021,1 hPa 0,0 l/m 0,5 km/h (0 Bft) SO 135 0 min 5,1 UV-I 6,5 C 9,9 C 0,0 km/h (0 Bft)
15.04.2015 03:05 10,7 C 20,9 C 8,8 C 10,4 C 9,9 C 0,0 C 75 % 81 % 0 % 1021,1 hPa 0,0 l/m 0,2 km/h (0 Bft) O-SO 112 0 min 5,3 UV-I 6,5 C 9,9 C 0,0 km/h (0 Bft)
15.04.2015 03:10 10,6 C 20,9 C 8,9 C 10,4 C 10,0 C 0,0 C 75 % 81 % 0 % 1021,1 hPa 0,0 l/m 0,0 km/h (0 Bft) O-NO 67 0 min 5,6 UV-I 6,4 C 10,0 C 0,0 km/h (0 Bft)
15.04.2015 03:15 10,6 C 20,9 C 8,8 C 10,4 C 10,0 C 0,0 C 75 % 81 % 0 % 1021,1 hPa 0,0 l/m 0,3 km/h (0 Bft) S-SO 157 0 min 7,6 UV-I 6,4 C 10,0 C 1,8 km/h (1 Bft)
15.04.2015 03:20 10,7 C 20,9 C 9,0 C 10,5 C 10,0 C 0,0 C 75 % 81 % 0 % 1020,9 hPa 0,0 l/m 0,5 km/h (0 Bft) S 180 0 min 8,4 UV-I 6,5 C 10,0 C 0,0 km/h (0 Bft)
15.04.2015 03:25 10,7 C 20,9 C 9,0 C 10,5 C 10,0 C 0,0 C 75 % 81 % 0 % 1020,9 hPa 0,0 l/m 0,6 km/h (0 Bft) SW 225 0 min 7,4 UV-I 6,5 C 10,0 C 0,0 km/h (0 Bft)
15.04.2015 03:30 10,7 C 20,8 C 9,1 C 10,5 C 10,1 C 0,0 C 75 % 81 % 0 % 1020,9 hPa 0,0 l/m 0,8 km/h (0 Bft) SO 135 0 min 6,0 UV-I 6,5 C 10,1 C 0,0 km/h (0 Bft)
15.04.2015 03:35 10,7 C 20,8 C 8,9 C 10,5 C 10,1 C 0,0 C 75 % 81 % 0 % 1020,9 hPa 0,0 l/m 0,3 km/h (0 Bft) W-SW 247 0 min 6,9 UV-I 6,5 C 10,1 C 0,0 km/h (0 Bft)
15.04.2015 03:42 10,6 C 20,8 C 8,8 C 10,4 C 9,9 C 0,0 C 75 % 81 % 0 % 1020,6 hPa 0,0 l/m 0,2 km/h (0 Bft) N 0 0 min 6,5 UV-I 6,4 C 9,9 C 0,0 km/h (0 Bft)
15.04.2015 03:50 10,7 C 20,8 C 8,8 C 10,5 C 10,0 C 0,0 C 75 % 82 % 0 % 1020,6 hPa 0,0 l/m 1,0 km/h (0 Bft) N 360 0 min 4,1 UV-I 6,5 C 10,0 C 3,4 km/h (1 Bft)
15.04.2015 03:55 10,8 C 20,8 C 9,1 C 10,6 C 10,1 C 0,0 C 75 % 82 % 0 % 1020,6 hPa 0,0 l/m 1,3 km/h (1 Bft) S 180 0 min 4,4 UV-I 6,5 C 10,1 C 5,5 km/h (1 Bft)
15.04.2015 04:00 10,8 C 20,8 C 9,0 C 10,5 C 10,0 C 0,0 C 75 % 81 % 0 % 1020,6 hPa 0,0 l/m 0,6 km/h (0 Bft) SW 225 0 min 5,6 UV-I 6,5 C 10,0 C 0,0 km/h (0 Bft)
15.04.2015 04:05 10,7 C 20,8 C 8,9 C 10,5 C 10,0 C 0,0 C 75 % 81 % 0 % 1020,6 hPa 0,0 l/m 1,1 km/h (1 Bft) W-SW 247 0 min 4,7 UV-I 6,5 C 10,0 C 2,1 km/h (1 Bft)
15.04.2015 04:10 10,9 C 20,7 C 8,9 C 10,6 C 10,0 C 0,0 C 75 % 82 % 0 % 1020,6 hPa 0,0 l/m 2,1 km/h (1 Bft) W-SW 247 0 min 2,7 UV-I 6,6 C 10,0 C 4,7 km/h (1 Bft)
15.04.2015 04:15 10,9 C 20,7 C 9,1 C 10,6 C 10,0 C 0,0 C 75 % 82 % 0 % 1020,6 hPa 0,0 l/m 2,7 km/h (1 Bft) W-SW 247 0 min 2,6 UV-I 6,6 C 10,0 C 2,3 km/h (1 Bft)
15.04.2015 04:20 10,9 C 20,7 C 9,0 C 10,6 C 10,0 C 0,0 C 75 % 82 % 0 % 1020,4 hPa 0,0 l/m 2,4 km/h (1 Bft) W-SW 247 0 min 2,4 UV-I 6,6 C 10,0 C 3,1 km/h (1 Bft)
15.04.2015 04:25 10,9 C 20,7 C 9,0 C 10,6 C 9,9 C 0,0 C 75 % 82 % 0 % 1020,4 hPa 0,0 l/m 2,6 km/h (1 Bft) W 270 0 min 1,9 UV-I 6,6 C 9,9 C 3,1 km/h (1 Bft)
15.04.2015 04:30 10,9 C 20,7 C 9,0 C 10,6 C 9,9 C 0,0 C 75 % 82 % 0 % 1020,4 hPa 0,0 l/m 2,7 km/h (1 Bft) W-SW 247 0 min 1,9 UV-I 6,6 C 9,9 C 2,1 km/h (1 Bft)
15.04.2015 04:35 10,9 C 20,7 C 8,8 C 10,5 C 9,7 C 0,0 C 75 % 82 % 0 % 1020,4 hPa 0,0 l/m 2,7 km/h (1 Bft) W-SW 247 0 min 1,7 UV-I 6,6 C 9,7 C 5,6 km/h (1 Bft)
15.04.2015 04:40 10,9 C 20,7 C 8,9 C 10,5 C 9,7 C 0,0 C 75 % 82 % 0 % 1020,4 hPa 0,0 l/m 3,2 km/h (1 Bft) W-SW 247 0 min 1,2 UV-I 6,6 C 9,7 C 6,8 km/h (2 Bft)
15.04.2015 04:45 11,1 C 20,7 C 9,1 C 10,7 C 9,9 C 0,0 C 75 % 82 % 0 % 1020,4 hPa 0,0 l/m 4,3 km/h (1 Bft) W-SW 247 0 min 1,2 UV-I 6,8 C 9,9 C 11,1 km/h (2 Bft)
15.04.2015 04:50 11,0 C 20,7 C 9,2 C 10,6 C 9,8 C 0,0 C 75 % 82 % 0 % 1020,4 hPa 0,0 l/m 5,1 km/h (1 Bft) SW 225 0 min 2,9 UV-I 6,7 C 9,5 C 6,8 km/h (2 Bft)
15.04.2015 04:55 11,1 C 20,7 C 9,3 C 10,7 C 9,8 C 0,0 C 75 % 82 % 0 % 1020,4 hPa 0,0 l/m 5,8 km/h (2 Bft) W-SW 247 0 min 4,3 UV-I 6,8 C 9,3 C 7,9 km/h (2 Bft)
15.04.2015 05:00 11,1 C 20,7 C 9,2 C 10,7 C 9,8 C 0,0 C 75 % 81 % 0 % 1020,8 hPa 0,0 l/m 5,6 km/h (1 Bft) W-SW 247 0 min 5,2 UV-I 6,8 C 9,4 C 4,8 km/h (1 Bft)
15.04.2015 05:05 11,0 C 20,7 C 9,2 C 10,6 C 9,9 C 0,0 C 74 % 81 % 0 % 1020,8 hPa 0,0 l/m 4,8 km/h (1 Bft) W-SW 247 0 min 4,8 UV-I 6,5 C 9,7 C 4,5 km/h (1 Bft)
15.04.2015 05:10 10,9 C 20,7 C 9,0 C 10,6 C 9,9 C 0,0 C 74 % 81 % 0 % 1020,8 hPa 0,0 l/m 3,9 km/h (1 Bft) W-SW 247 0 min 3,6 UV-I 6,5 C 9,9 C 2,9 km/h (1 Bft)
15.04.2015 05:15 10,7 C 20,6 C 8,8 C 10,3 C 9,5 C 0,0 C 74 % 81 % 0 % 1020,8 hPa 0,0 l/m 2,4 km/h (1 Bft) SW 225 0 min 1,7 UV-I 6,3 C 9,5 C 3,5 km/h (1 Bft)
15.04.2015 05:20 10,5 C 20,6 C 8,7 C 10,1 C 9,3 C 0,0 C 75 % 81 % 0 % 1020,6 hPa 0,0 l/m 1,9 km/h (1 Bft) SW 225 0 min 0,4 UV-I 6,3 C 9,3 C 0,0 km/h (0 Bft)
15.04.2015 05:25 10,3 C 20,6 C 8,4 C 9,9 C 9,0 C 0,0 C 75 % 81 % 0 % 1020,6 hPa 0,0 l/m 1,1 km/h (1 Bft) W-SW 247 0 min 0,2 UV-I 6,1 C 9,0 C 1,9 km/h (1 Bft)
15.04.2015 05:30 10,1 C 20,7 C 8,0 C 9,6 C 8,7 C 0,0 C 74 % 81 % 0 % 1020,6 hPa 0,0 l/m 0,5 km/h (0 Bft) W 270 0 min 0,2 UV-I 5,7 C 8,7 C 0,0 km/h (0 Bft)
15.04.2015 05:35 9,9 C 20,7 C 7,6 C 9,3 C 8,2 C 0,0 C 74 % 81 % 0 % 1020,6 hPa 0,0 l/m 0,3 km/h (0 Bft) W-NW 292 0 min 0,1 UV-I 5,5 C 8,2 C 1,6 km/h (1 Bft)
15.04.2015 05:40 9,6 C 20,7 C 7,6 C 9,1 C 8,2 C 0,0 C 75 % 83 % 0 % 1020,4 hPa 0,0 l/m 0,8 km/h (0 Bft) W-SW 247 0 min 0,2 UV-I 5,4 C 8,2 C 0,0 km/h (0 Bft)
15.04.2015 05:45 9,5 C 20,7 C 7,5 C 9,0 C 8,1 C 0,0 C 76 % 82 % 0 % 1020,4 hPa 0,0 l/m 0,8 km/h (0 Bft) S-SW 202 0 min 0,4 UV-I 5,5 C 8,1 C 0,0 km/h (0 Bft)
15.04.2015 05:50 9,4 C 20,8 C 7,3 C 8,9 C 7,9 C 0,0 C 76 % 83 % 0 % 1020,4 hPa 0,0 l/m 0,2 km/h (0 Bft) N-NW 337 0 min 0,5 UV-I 5,4 C 7,9 C 0,0 km/h (0 Bft)
15.04.2015 05:55 9,2 C 20,8 C 7,1 C 8,7 C 7,6 C 0,0 C 76 % 83 % 0 % 1020,4 hPa 0,0 l/m 0,0 km/h (0 Bft) W-SW 247 0 min 0,4 UV-I 5,2 C 7,6 C 0,0 km/h (0 Bft)
15.04.2015 06:00 9,1 C 20,8 C 6,9 C 8,6 C 7,5 C 0,0 C 77 % 83 % 0 % 1020,5 hPa 0,0 l/m 0,0 km/h (0 Bft) O-NO 67 0 min 0,4 UV-I 5,3 C 7,5 C 0,0 km/h (0 Bft)
15.04.2015 06:05 8,9 C 20,9 C 6,8 C 8,4 C 7,5 C 0,0 C 77 % 83 % 0 % 1020,5 hPa 0,0 l/m 0,0 km/h (0 Bft) O-NO 67 0 min 0,7 UV-I 5,1 C 7,5 C 0,0 km/h (0 Bft)
15.04.2015 06:10 8,8 C 21,0 C 6,8 C 8,3 C 7,4 C 0,0 C 78 % 84 % 0 % 1020,5 hPa 0,0 l/m 0,0 km/h (0 Bft) O-NO 67 0 min 1,1 UV-I 5,2 C 7,4 C 0,0 km/h (0 Bft)
15.04.2015 06:15 8,5 C 21,0 C 6,9 C 8,1 C 7,2 C 0,0 C 78 % 85 % 0 % 1020,5 hPa 0,0 l/m 0,3 km/h (0 Bft) O-NO 67 0 min 1,4 UV-I 4,9 C 7,2 C 1,6 km/h (1 Bft)
15.04.2015 06:20 8,4 C 20,9 C 6,8 C 8,0 C 7,2 C 0,0 C 79 % 85 % 0 % 1020,8 hPa 0,0 l/m 0,3 km/h (0 Bft) O-NO 67 0 min 1,9 UV-I 5,0 C 7,2 C 0,0 km/h (0 Bft)
15.04.2015 06:25 8,2 C 20,9 C 6,8 C 7,8 C 7,1 C 0,0 C 79 % 85 % 0 % 1020,8 hPa 0,0 l/m 0,2 km/h (0 Bft) O-NO 67 0 min 2,5 UV-I 4,8 C 7,1 C 0,0 km/h (0 Bft)
15.04.2015 06:30 8,1 C 20,9 C 6,7 C 7,7 C 6,9 C 0,0 C 78 % 85 % 0 % 1020,8 hPa 0,0 l/m 0,0 km/h (0 Bft) O-NO 67 0 min 2,3 UV-I 4,5 C 6,9 C 0,0 km/h (0 Bft)
15.04.2015 06:35 7,8 C 20,9 C 6,4 C 7,4 C 6,6 C 0,0 C 79 % 85 % 0 % 1020,8 hPa 0,0 l/m 0,2 km/h (0 Bft) W-SW 247 0 min 1,5 UV-I 4,4 C 6,6 C 0,0 km/h (0 Bft)
15.04.2015 06:42 7,5 C 20,9 C 6,5 C 7,2 C 6,5 C 0,0 C 79 % 85 % 0 % 1020,6 hPa 0,0 l/m 0,3 km/h (0 Bft) N 0 0 min 1,5 UV-I 4,1 C 6,5 C 0,0 km/h (0 Bft)
15.04.2015 06:50 7,3 C 20,9 C 6,5 C 7,0 C 6,5 C 0,0 C 79 % 85 % 0 % 1020,6 hPa 0,0 l/m 0,3 km/h (0 Bft) S-SW 202 0 min 1,5 UV-I 3,9 C 6,5 C 0,0 km/h (0 Bft)
15.04.2015 06:55 7,1 C 20,9 C 6,5 C 6,9 C 6,6 C 0,0 C 79 % 85 % 0 % 1020,6 hPa 0,0 l/m 0,0 km/h (0 Bft) O-NO 67 0 min 2,8 UV-I 3,7 C 6,6 C 0,0 km/h (0 Bft)
15.04.2015 07:00 7,0 C 20,9 C 6,9 C 7,0 C 7,0 C 0,0 C 80 % 85 % 0 % 1020,7 hPa 0,0 l/m 0,0 km/h (0 Bft) NW 315 0 min 4,1 UV-I 3,8 C 7,0 C 0,0 km/h (0 Bft)
15.04.2015 07:05 6,9 C 20,8 C 7,6 C 9,3 C 9,3 C 2,4 C 80 % 86 % 63 % 1020,7 hPa 0,0 l/m 0,0 km/h (0 Bft) SW 225 5 min 6,8 UV-I 3,7 C 9,3 C 0,0 km/h (0 Bft)
15.04.2015 07:10 6,7 C 20,7 C 8,3 C 10,8 C 10,8 C 4,1 C 81 % 86 % 100 % 1020,7 hPa 0,0 l/m 0,0 km/h (0 Bft) SW 225 5 min 10,0 UV-I 3,7 C 10,8 C 0,0 km/h (0 Bft)
15.04.2015 07:15 6,9 C 20,7 C 8,9 C 12,7 C 12,7 C 5,8 C 81 % 85 % 100 % 1020,7 hPa 0,0 l/m 0,0 km/h (0 Bft) SW 225 5 min 13,2 UV-I 3,9 C 12,7 C 0,0 km/h (0 Bft)
15.04.2015 07:20 6,9 C 20,7 C 8,9 C 12,7 C 12,7 C 5,8 C 81 % 85 % 100 % 1020,2 hPa 0,0 l/m 0,0 km/h (0 Bft) SW 225 5 min 13,2 UV-I 3,9 C 12,7 C 0,0 km/h (0 Bft)
15.04.2015 07:25 7,1 C 20,6 C 8,9 C 11,8 C 11,8 C 4,7 C 82 % 84 % 100 % 1020,2 hPa 0,0 l/m 0,0 km/h (0 Bft) SO 135 5 min 17,9 UV-I 4,2 C 11,8 C 0,0 km/h (0 Bft)
15.04.2015 07:30 7,2 C 20,5 C 9,1 C 11,5 C 11,5 C 4,3 C 82 % 84 % 100 % 1020,2 hPa 0,0 l/m 0,0 km/h (0 Bft) S 180 5 min 18,8 UV-I 4,3 C 11,5 C 0,0 km/h (0 Bft)
15.04.2015 07:35 7,3 C 20,5 C 9,0 C 11,0 C 11,0 C 3,7 C 82 % 84 % 97 % 1020,2 hPa 0,0 l/m 0,0 km/h (0 Bft) W-SW 247 5 min 19,5 UV-I 4,4 C 11,0 C 0,0 km/h (0 Bft)
15.04.2015 07:40 7,5 C 20,5 C 9,1 C 10,8 C 10,8 C 3,3 C 82 % 84 % 87 % 1020,8 hPa 0,0 l/m 0,0 km/h (0 Bft) W 270 5 min 20,2 UV-I 4,6 C 10,8 C 0,0 km/h (0 Bft)
15.04.2015 07:45 7,6 C 20,5 C 9,1 C 10,6 C 10,6 C 3,0 C 81 % 84 % 79 % 1020,8 hPa 0,0 l/m 0,0 km/h (0 Bft) W-NW 292 5 min 20,6 UV-I 4,6 C 10,6 C 0,0 km/h (0 Bft)
15.04.2015 07:50 7,7 C 20,6 C 9,2 C 10,5 C 10,5 C 2,8 C 82 % 83 % 74 % 1020,8 hPa 0,0 l/m 0,0 km/h (0 Bft) W-NW 292 5 min 21,0 UV-I 4,8 C 10,5 C 0,0 km/h (0 Bft)
15.04.2015 07:55 7,7 C 20,5 C 9,4 C 10,5 C 10,5 C 2,8 C 81 % 83 % 74 % 1020,8 hPa 0,0 l/m 0,0 km/h (0 Bft) W-NW 292 5 min 21,9 UV-I 4,7 C 10,5 C 0,0 km/h (0 Bft)
15.04.2015 08:00 7,9 C 20,5 C 9,6 C 10,6 C 10,6 C 2,7 C 82 % 83 % 71 % 1020,2 hPa 0,0 l/m 0,0 km/h (0 Bft) W-NW 292 5 min 22,9 UV-I 5,0 C 10,6 C 0,0 km/h (0 Bft)
15.04.2015 08:05 8,0 C 20,4 C 9,9 C 11,0 C 11,0 C 3,0 C 82 % 84 % 79 % 1020,2 hPa 0,0 l/m 0,0 km/h (0 Bft) W-NW 292 5 min 24,1 UV-I 5,1 C 11,0 C 0,0 km/h (0 Bft)
15.04.2015 08:10 8,1 C 20,4 C 10,0 C 11,2 C 11,2 C 3,1 C 82 % 83 % 82 % 1020,2 hPa 0,0 l/m 0,0 km/h (0 Bft) O-NO 67 5 min 25,0 UV-I 5,2 C 11,2 C 0,0 km/h (0 Bft)
15.04.2015 08:15 8,3 C 20,4 C 10,2 C 11,7 C 11,7 C 3,4 C 82 % 83 % 89 % 1020,2 hPa 0,0 l/m 0,0 km/h (0 Bft) SW 225 5 min 25,5 UV-I 5,4 C 11,7 C 0,0 km/h (0 Bft)
15.04.2015 08:20 8,7 C 20,4 C 10,5 C 11,9 C 11,9 C 3,2 C 81 % 83 % 84 % 1021,1 hPa 0,0 l/m 0,0 km/h (0 Bft) S-SO 157 5 min 25,5 UV-I 5,6 C 11,9 C 0,0 km/h (0 Bft)
15.04.2015 08:25 8,9 C 20,4 C 10,6 C 12,5 C 12,5 C 3,6 C 81 % 83 % 95 % 1021,1 hPa 0,0 l/m 0,0 km/h (0 Bft) W-SW 247 5 min 25,5 UV-I 5,8 C 12,5 C 0,0 km/h (0 Bft)
15.04.2015 08:30 9,1 C 20,4 C 10,8 C 13,0 C 13,0 C 3,9 C 81 % 83 % 100 % 1021,1 hPa 0,0 l/m 0,0 km/h (0 Bft) SW 225 5 min 25,5 UV-I 6,0 C 13,0 C 0,0 km/h (0 Bft)
15.04.2015 08:35 9,3 C 20,4 C 11,2 C 13,7 C 13,7 C 4,4 C 81 % 82 % 100 % 1021,1 hPa 0,0 l/m 0,0 km/h (0 Bft) N-NW 337 5 min 25,5 UV-I 6,2 C 13,7 C 0,0 km/h (0 Bft)
15.04.2015 08:40 9,6 C 20,4 C 11,5 C 14,4 C 14,4 C 4,8 C 82 % 82 % 100 % 1020,1 hPa 0,0 l/m 0,0 km/h (0 Bft) O-SO 112 5 min 25,5 UV-I 6,7 C 14,4 C 0,0 km/h (0 Bft)
15.04.2015 08:45 10,1 C 20,4 C 11,7 C 15,6 C 15,6 C 5,5 C 81 % 81 % 100 % 1020,1 hPa 0,0 l/m 0,0 km/h (0 Bft) W-SW 247 5 min 25,5 UV-I 7,0 C 15,6 C 0,0 km/h (0 Bft)
15.04.2015 08:50 10,4 C 20,4 C 11,7 C 16,0 C 16,0 C 5,6 C 80 % 81 % 100 % 1020,1 hPa 0,0 l/m 0,0 km/h (0 Bft) SW 225 5 min 9,5 UV-I 7,1 C 16,0 C 0,0 km/h (0 Bft)
15.04.2015 08:55 10,9 C 20,4 C 11,7 C 16,0 C 16,0 C 5,1 C 79 % 80 % 100 % 1020,1 hPa 0,0 l/m 0,2 km/h (0 Bft) SW 225 5 min 1,0 UV-I 7,4 C 16,0 C 0,0 km/h (0 Bft)
15.04.2015 09:00 11,2 C 20,4 C 11,8 C 16,8 C 16,8 C 5,6 C 79 % 80 % 100 % 1020,1 hPa 0,0 l/m 0,3 km/h (0 Bft) W 270 5 min 0,2 UV-I 7,7 C 16,8 C 0,0 km/h (0 Bft)
15.04.2015 09:05 11,9 C 20,3 C 12,0 C 19,2 C 19,2 C 7,3 C 78 % 80 % 100 % 1020,1 hPa 0,0 l/m 1,0 km/h (0 Bft) W-SW 247 5 min 0,3 UV-I 8,2 C 19,2 C 2,6 km/h (1 Bft)
15.04.2015 09:10 12,4 C 20,4 C 12,1 C 19,8 C 19,8 C 7,4 C 77 % 80 % 100 % 1020,1 hPa 0,0 l/m 1,9 km/h (1 Bft) S 180 5 min 0,2 UV-I 8,5 C 19,8 C 2,6 km/h (1 Bft)
15.04.2015 09:15 13,3 C 20,3 C 12,5 C 19,4 C 19,4 C 6,1 C 76 % 80 % 100 % 1020,1 hPa 0,0 l/m 3,2 km/h (1 Bft) W-SW 247 5 min 0,4 UV-I 9,2 C 19,4 C 4,7 km/h (1 Bft)
15.04.2015 09:20 13,7 C 20,3 C 12,8 C 19,2 C 19,2 C 5,5 C 74 % 80 % 100 % 1020,1 hPa 0,0 l/m 4,3 km/h (1 Bft) W-SW 247 5 min 0,4 UV-I 9,2 C 19,2 C 5,3 km/h (1 Bft)
15.04.2015 09:25 14,3 C 20,3 C 13,4 C 19,2 C 19,2 C 4,9 C 73 % 78 % 100 % 1020,1 hPa 0,0 l/m 5,8 km/h (2 Bft) W-SW 247 5 min 0,3 UV-I 9,5 C 19,2 C 12,7 km/h (3 Bft)
15.04.2015 09:30 14,7 C 20,3 C 13,7 C 18,5 C 18,5 C 3,8 C 71 % 77 % 100 % 1020,1 hPa 0,0 l/m 6,8 km/h (2 Bft) W-SW 247 5 min 0,2 UV-I 9,5 C 18,5 C 7,2 km/h (2 Bft)
15.04.2015 09:35 14,8 C 20,3 C 14,0 C 18,5 C 18,5 C 3,7 C 68 % 75 % 97 % 1020,1 hPa 0,0 l/m 7,9 km/h (2 Bft) W-SW 247 5 min 0,2 UV-I 9,0 C 18,5 C 15,4 km/h (3 Bft)
15.04.2015 09:42 15,3 C 20,3 C 14,9 C 17,7 C 17,7 C 2,4 C 66 % 72 % 63 % 1020,2 hPa 0,0 l/m 10,0 km/h (2 Bft) N 0 0 min 0,1 UV-I 9,0 C 17,7 C 20,0 km/h (4 Bft)
15.04.2015 09:50 15,5 C 20,4 C 15,0 C 17,8 C 17,8 C 2,3 C 66 % 71 % 61 % 1020,2 hPa 0,0 l/m 9,8 km/h (2 Bft) SW 225 0 min 0,1 UV-I 9,2 C 17,8 C 5,6 km/h (1 Bft)
15.04.2015 09:55 15,8 C 20,4 C 15,2 C 18,8 C 18,8 C 3,0 C 65 % 70 % 79 % 1020,2 hPa 0,0 l/m 9,0 km/h (2 Bft) W-SW 247 0 min 0,1 UV-I 9,2 C 18,8 C 10,8 km/h (2 Bft)
15.04.2015 10:00 15,9 C 20,4 C 15,3 C 18,6 C 18,6 C 2,7 C 65 % 70 % 71 % 1019,9 hPa 0,0 l/m 7,6 km/h (2 Bft) W-SW 247 0 min 0,1 UV-I 9,3 C 18,6 C 7,6 km/h (2 Bft)
15.04.2015 10:05 16,0 C 20,4 C 15,5 C 18,7 C 18,7 C 2,7 C 64 % 69 % 71 % 1019,9 hPa 0,0 l/m 8,0 km/h (2 Bft) W-SW 247 0 min 0,1 UV-I 9,2 C 18,7 C 13,4 km/h (3 Bft)
15.04.2015 10:10 16,1 C 20,4 C 15,6 C 18,5 C 18,5 C 2,4 C 64 % 69 % 63 % 1019,9 hPa 0,0 l/m 8,4 km/h (2 Bft) W-SW 247 0 min 0,1 UV-I 9,3 C 18,5 C 10,3 km/h (2 Bft)
15.04.2015 10:15 16,4 C 20,4 C 16,1 C 18,8 C 18,8 C 2,4 C 63 % 68 % 63 % 1019,9 hPa 0,0 l/m 9,5 km/h (2 Bft) W-SW 247 0 min 0,0 UV-I 9,3 C 18,8 C 13,2 km/h (3 Bft)
15.04.2015 10:20 16,5 C 20,4 C 16,4 C 19,0 C 19,0 C 2,5 C 63 % 67 % 66 % 1019,9 hPa 0,0 l/m 10,0 km/h (2 Bft) SW 225 0 min 0,0 UV-I 9,4 C 19,0 C 17,4 km/h (3 Bft)
15.04.2015 10:25 16,8 C 20,4 C 17,2 C 19,2 C 19,2 C 2,4 C 62 % 65 % 63 % 1019,9 hPa 0,0 l/m 10,8 km/h (2 Bft) W-SW 247 0 min 0,1 UV-I 9,5 C 19,2 C 10,1 km/h (2 Bft)
15.04.2015 10:30 16,8 C 20,5 C 17,7 C 19,1 C 19,1 C 2,3 C 61 % 62 % 61 % 1019,9 hPa 0,0 l/m 11,6 km/h (2 Bft) S 180 0 min 0,1 UV-I 9,2 C 19,1 C 16,3 km/h (3 Bft)
15.04.2015 10:35 16,8 C 20,5 C 18,0 C 19,2 C 19,2 C 2,4 C 61 % 61 % 63 % 1019,9 hPa 0,0 l/m 12,9 km/h (3 Bft) SW 225 0 min 0,1 UV-I 9,2 C 19,2 C 25,3 km/h (4 Bft)
15.04.2015 10:40 17,0 C 20,5 C 17,9 C 19,6 C 19,6 C 2,6 C 61 % 62 % 68 % 1019,8 hPa 0,0 l/m 11,4 km/h (2 Bft) S-SW 202 0 min 0,1 UV-I 9,4 C 19,6 C 7,7 km/h (2 Bft)
15.04.2015 10:45 17,2 C 20,5 C 18,4 C 19,9 C 19,9 C 2,7 C 59 % 60 % 71 % 1019,8 hPa 0,0 l/m 9,2 km/h (2 Bft) SW 225 0 min 0,2 UV-I 9,1 C 19,9 C 15,8 km/h (3 Bft)
15.04.2015 10:50 17,3 C 20,5 C 18,5 C 19,6 C 19,6 C 2,3 C 59 % 60 % 61 % 1019,8 hPa 0,0 l/m 9,5 km/h (2 Bft) W-SW 247 0 min 0,1 UV-I 9,2 C 19,6 C 8,2 km/h (2 Bft)
15.04.2015 10:55 17,5 C 20,5 C 19,1 C 19,4 C 19,4 C 1,9 C 59 % 59 % 50 % 1019,8 hPa 0,0 l/m 9,8 km/h (2 Bft) S-SW 202 0 min 0,0 UV-I 9,4 C 19,4 C 7,9 km/h (2 Bft)
15.04.2015 11:00 17,5 C 20,5 C 19,4 C 19,0 C 19,0 C 1,5 C 58 % 57 % 39 % 1019,8 hPa 0,0 l/m 10,5 km/h (2 Bft) SW 225 0 min 0,1 UV-I 9,1 C 19,0 C 7,9 km/h (2 Bft)
15.04.2015 11:05 17,6 C 20,5 C 20,1 C 19,0 C 19,0 C 1,4 C 57 % 56 % 37 % 1019,8 hPa 0,0 l/m 10,6 km/h (2 Bft) W-SW 247 0 min 0,0 UV-I 9,0 C 19,0 C 15,4 km/h (3 Bft)
15.04.2015 11:10 17,8 C 20,6 C 20,4 C 19,1 C 19,1 C 1,3 C 58 % 55 % 34 % 1019,8 hPa 0,0 l/m 9,7 km/h (2 Bft) W-SW 247 0 min 0,0 UV-I 9,4 C 19,1 C 9,3 km/h (2 Bft)
15.04.2015 11:15 17,9 C 20,6 C 21,0 C 19,5 C 19,5 C 1,6 C 58 % 54 % 42 % 1019,8 hPa 0,0 l/m 9,5 km/h (2 Bft) SW 225 0 min 0,0 UV-I 9,5 C 19,5 C 8,4 km/h (2 Bft)
15.04.2015 11:20 18,0 C 20,6 C 21,3 C 19,7 C 19,7 C 1,7 C 58 % 53 % 45 % 1019,4 hPa 0,0 l/m 9,5 km/h (2 Bft) W-SW 247 0 min 0,1 UV-I 9,6 C 19,7 C 15,4 km/h (3 Bft)
15.04.2015 11:25 18,0 C 20,6 C 21,8 C 19,8 C 19,8 C 1,8 C 57 % 51 % 47 % 1019,4 hPa 0,0 l/m 9,8 km/h (2 Bft) W-SW 247 0 min 0,1 UV-I 9,4 C 19,8 C 9,5 km/h (2 Bft)
15.04.2015 11:30 18,3 C 20,6 C 22,0 C 20,1 C 20,1 C 1,8 C 56 % 50 % 47 % 1019,4 hPa 0,0 l/m 9,5 km/h (2 Bft) W-SW 247 0 min 0,1 UV-I 9,4 C 20,1 C 8,9 km/h (2 Bft)
15.04.2015 11:35 18,4 C 20,6 C 22,5 C 20,0 C 20,0 C 1,6 C 55 % 50 % 42 % 1019,4 hPa 0,0 l/m 10,1 km/h (2 Bft) SW 225 0 min 0,1 UV-I 9,2 C 20,0 C 11,4 km/h (2 Bft)
15.04.2015 11:40 18,4 C 20,7 C 23,0 C 20,2 C 20,2 C 1,8 C 55 % 48 % 47 % 1019,2 hPa 0,0 l/m 10,8 km/h (2 Bft) SW 225 0 min 0,1 UV-I 9,2 C 20,2 C 15,4 km/h (3 Bft)
15.04.2015 11:45 18,5 C 20,7 C 23,0 C 20,5 C 20,5 C 2,0 C 54 % 47 % 53 % 1019,2 hPa 0,0 l/m 10,3 km/h (2 Bft) W-SW 247 0 min 0,0 UV-I 9,0 C 20,5 C 14,3 km/h (3 Bft)
15.04.2015 11:50 18,6 C 20,7 C 23,2 C 20,3 C 20,3 C 1,7 C 55 % 47 % 45 % 1019,2 hPa 0,0 l/m 9,8 km/h (2 Bft) W-SW 247 0 min 0,1 UV-I 9,4 C 20,3 C 6,4 km/h (2 Bft)
15.04.2015 11:55 18,8 C 20,7 C 23,7 C 20,6 C 20,6 C 1,8 C 55 % 48 % 47 % 1019,2 hPa 0,0 l/m 9,0 km/h (2 Bft) W-SW 247 0 min 0,1 UV-I 9,6 C 20,6 C 12,1 km/h (2 Bft)
15.04.2015 12:00 18,9 C 20,8 C 23,5 C 20,5 C 20,5 C 1,6 C 55 % 46 % 42 % 1019,1 hPa 0,0 l/m 9,0 km/h (2 Bft) SW 225 0 min 0,1 UV-I 9,7 C 20,5 C 12,1 km/h (2 Bft)
15.04.2015 12:05 19,1 C 20,8 C 23,2 C 20,7 C 20,7 C 1,6 C 54 % 47 % 42 % 1019,1 hPa 0,0 l/m 10,8 km/h (2 Bft) SW 225 0 min 0,1 UV-I 9,6 C 20,7 C 20,0 km/h (4 Bft)
15.04.2015 12:10 19,1 C 20,8 C 23,1 C 20,9 C 20,9 C 1,8 C 53 % 46 % 47 % 1019,1 hPa 0,0 l/m 11,1 km/h (2 Bft) W-SW 247 0 min 0,1 UV-I 9,3 C 20,9 C 12,9 km/h (3 Bft)
15.04.2015 12:15 19,2 C 20,8 C 23,2 C 21,4 C 21,4 C 2,2 C 51 % 45 % 58 % 1019,1 hPa 0,0 l/m 11,1 km/h (2 Bft) SW 225 0 min 0,1 UV-I 8,8 C 21,4 C 15,8 km/h (3 Bft)
15.04.2015 12:20 19,3 C 20,9 C 23,5 C 21,9 C 21,9 C 2,6 C 52 % 45 % 68 % 1018,8 hPa 0,0 l/m 10,8 km/h (2 Bft) SW 225 0 min 0,1 UV-I 9,2 C 21,9 C 17,7 km/h (3 Bft)
15.04.2015 12:25 19,5 C 20,9 C 23,8 C 22,7 C 22,7 C 3,2 C 51 % 44 % 84 % 1018,8 hPa 0,0 l/m 10,8 km/h (2 Bft) W-SW 247 0 min 0,2 UV-I 9,1 C 22,7 C 8,9 km/h (2 Bft)
15.04.2015 12:30 19,7 C 20,8 C 24,2 C 23,1 C 23,1 C 3,4 C 51 % 44 % 89 % 1018,8 hPa 0,0 l/m 10,5 km/h (2 Bft) W-SW 247 5 min 0,2 UV-I 9,3 C 23,1 C 9,0 km/h (2 Bft)
15.04.2015 12:35 20,0 C 20,9 C 24,0 C 23,7 C 23,7 C 3,7 C 49 % 43 % 97 % 1018,8 hPa 0,0 l/m 9,5 km/h (2 Bft) W 270 5 min 0,3 UV-I 9,0 C 23,7 C 16,4 km/h (3 Bft)
15.04.2015 12:41 20,1 C 21,0 C 24,1 C 23,6 C 23,6 C 3,5 C 50 % 44 % 92 % 1018,6 hPa 0,0 l/m 11,3 km/h (2 Bft) N 0 6 min 0,3 UV-I 9,3 C 23,6 C 7,4 km/h (2 Bft)
15.04.2015 12:50 20,3 C 21,0 C 24,5 C 23,8 C 23,8 C 3,5 C 48 % 42 % 92 % 1018,6 hPa 0,0 l/m 11,1 km/h (2 Bft) S-SW 202 9 min 0,3 UV-I 8,9 C 23,8 C 16,4 km/h (3 Bft)
15.04.2015 12:55 20,3 C 21,0 C 24,3 C 23,7 C 23,7 C 3,4 C 47 % 41 % 89 % 1018,6 hPa 0,0 l/m 12,1 km/h (2 Bft) S-SO 157 5 min 0,3 UV-I 8,6 C 23,7 C 15,3 km/h (3 Bft)
15.04.2015 13:00 20,5 C 21,0 C 24,3 C 23,7 C 23,7 C 3,2 C 46 % 41 % 84 % 1018,4 hPa 0,0 l/m 12,1 km/h (2 Bft) W 270 0 min 0,2 UV-I 8,5 C 23,7 C 13,2 km/h (3 Bft)
15.04.2015 13:05 20,7 C 21,1 C 24,3 C 24,0 C 24,0 C 3,3 C 45 % 41 % 87 % 1018,4 hPa 0,0 l/m 11,4 km/h (2 Bft) SW 225 5 min 0,2 UV-I 8,3 C 24,0 C 13,5 km/h (3 Bft)
15.04.2015 13:10 20,8 C 21,1 C 24,3 C 24,3 C 24,3 C 3,5 C 45 % 42 % 92 % 1018,4 hPa 0,0 l/m 10,8 km/h (2 Bft) W 270 5 min 0,2 UV-I 8,4 C 24,3 C 10,3 km/h (2 Bft)
15.04.2015 13:15 21,0 C 21,2 C 25,2 C 24,6 C 24,6 C 3,6 C 45 % 41 % 95 % 1018,4 hPa 0,0 l/m 10,0 km/h (2 Bft) SW 225 5 min 0,2 UV-I 8,6 C 24,6 C 20,3 km/h (4 Bft)
15.04.2015 13:20 21,3 C 21,2 C 25,2 C 24,8 C 24,8 C 3,5 C 44 % 40 % 92 % 1017,9 hPa 0,0 l/m 9,7 km/h (2 Bft) SW 225 5 min 0,3 UV-I 8,5 C 24,8 C 14,3 km/h (3 Bft)
15.04.2015 13:25 21,3 C 21,2 C 25,2 C 24,8 C 24,8 C 3,5 C 43 % 39 % 92 % 1017,9 hPa 0,0 l/m 10,9 km/h (2 Bft) W-SW 247 5 min 0,2 UV-I 8,2 C 24,8 C 20,1 km/h (4 Bft)
15.04.2015 13:30 21,5 C 21,2 C 25,1 C 24,8 C 24,8 C 3,3 C 43 % 39 % 87 % 1017,9 hPa 0,0 l/m 11,6 km/h (2 Bft) W-SW 247 5 min 0,3 UV-I 8,4 C 24,8 C 16,7 km/h (3 Bft)
15.04.2015 13:35 21,5 C 21,3 C 25,0 C 24,9 C 24,9 C 3,4 C 39 % 37 % 89 % 1017,9 hPa 0,0 l/m 10,6 km/h (2 Bft) W-SW 247 5 min 0,2 UV-I 7,0 C 24,9 C 9,2 km/h (2 Bft)
15.04.2015 13:40 21,9 C 21,3 C 25,5 C 25,3 C 25,3 C 3,4 C 38 % 36 % 89 % 1018,1 hPa 0,0 l/m 10,3 km/h (2 Bft) W-SW 247 5 min 0,2 UV-I 6,9 C 25,3 C 7,7 km/h (2 Bft)
15.04.2015 13:45 22,0 C 21,4 C 26,0 C 25,4 C 25,4 C 3,4 C 39 % 36 % 89 % 1018,1 hPa 0,0 l/m 9,8 km/h (2 Bft) W-SW 247 5 min 0,3 UV-I 7,4 C 25,4 C 14,5 km/h (3 Bft)
15.04.2015 13:50 22,1 C 21,4 C 26,3 C 25,4 C 25,4 C 3,3 C 40 % 37 % 87 % 1018,1 hPa 0,0 l/m 10,0 km/h (2 Bft) W-SW 247 5 min 0,3 UV-I 7,9 C 25,4 C 5,1 km/h (1 Bft)
15.04.2015 13:55 22,3 C 21,4 C 26,5 C 25,8 C 25,8 C 3,5 C 36 % 35 % 92 % 1018,1 hPa 0,0 l/m 11,1 km/h (2 Bft) SW 225 5 min 0,2 UV-I 6,5 C 25,8 C 16,3 km/h (3 Bft)
15.04.2015 14:00 22,1 C 21,5 C 26,6 C 25,5 C 25,5 C 3,4 C 37 % 34 % 89 % 1017,5 hPa 0,0 l/m 11,4 km/h (2 Bft) W-SW 247 5 min 0,2 UV-I 6,7 C 25,5 C 18,8 km/h (3 Bft)
15.04.2015 14:05 22,4 C 21,5 C 26,5 C 25,6 C 25,6 C 3,2 C 35 % 32 % 84 % 1017,5 hPa 0,0 l/m 12,1 km/h (2 Bft) SW 225 0 min 0,2 UV-I 6,2 C 25,6 C 25,9 km/h (4 Bft)
15.04.2015 14:10 22,3 C 21,5 C 26,3 C 25,5 C 25,5 C 3,2 C 36 % 34 % 84 % 1017,5 hPa 0,0 l/m 11,7 km/h (2 Bft) SW 225 0 min 0,2 UV-I 6,5 C 25,5 C 12,1 km/h (2 Bft)
15.04.2015 14:15 22,5 C 21,6 C 26,0 C 25,6 C 25,6 C 3,1 C 37 % 35 % 82 % 1017,5 hPa 0,0 l/m 11,4 km/h (2 Bft) W 270 0 min 0,2 UV-I 7,1 C 25,6 C 11,7 km/h (2 Bft)
15.04.2015 14:20 22,5 C 21,6 C 25,9 C 25,7 C 25,7 C 3,2 C 37 % 35 % 84 % 1017,8 hPa 0,0 l/m 10,6 km/h (2 Bft) SW 225 0 min 0,2 UV-I 7,1 C 25,7 C 16,9 km/h (3 Bft)
15.04.2015 14:25 22,7 C 21,6 C 26,3 C 25,8 C 25,8 C 3,1 C 38 % 36 % 82 % 1017,8 hPa 0,0 l/m 10,1 km/h (2 Bft) SW 225 0 min 0,2 UV-I 7,6 C 25,8 C 12,1 km/h (2 Bft)
15.04.2015 14:30 22,7 C 21,7 C 26,4 C 26,0 C 26,0 C 3,3 C 39 % 36 % 87 % 1017,8 hPa 0,0 l/m 9,8 km/h (2 Bft) W-SW 247 5 min 0,2 UV-I 8,0 C 26,0 C 7,6 km/h (2 Bft)
15.04.2015 14:35 23,1 C 21,6 C 26,6 C 26,5 C 26,5 C 3,4 C 38 % 36 % 89 % 1017,8 hPa 0,0 l/m 7,9 km/h (2 Bft) SW 225 5 min 0,2 UV-I 8,0 C 26,5 C 11,3 km/h (2 Bft)
15.04.2015 14:40 23,1 C 21,7 C 26,4 C 26,6 C 26,6 C 3,5 C 38 % 35 % 92 % 1017,3 hPa 0,0 l/m 8,0 km/h (2 Bft) W-SW 247 5 min 0,2 UV-I 8,0 C 26,6 C 10,5 km/h (2 Bft)
15.04.2015 14:45 23,1 C 21,7 C 26,3 C 26,3 C 26,3 C 3,2 C 35 % 34 % 84 % 1017,3 hPa 0,0 l/m 11,1 km/h (2 Bft) SW 225 0 min 0,2 UV-I 6,8 C 26,3 C 25,9 km/h (4 Bft)
15.04.2015 14:50 22,9 C 21,7 C 26,1 C 26,0 C 26,0 C 3,1 C 37 % 34 % 82 % 1017,3 hPa 0,0 l/m 11,4 km/h (2 Bft) S-SW 202 0 min 0,2 UV-I 7,4 C 26,0 C 15,6 km/h (3 Bft)
15.04.2015 14:55 23,3 C 21,8 C 25,6 C 26,4 C 26,4 C 3,1 C 38 % 36 % 82 % 1017,3 hPa 0,0 l/m 9,8 km/h (2 Bft) W-SW 247 0 min 0,2 UV-I 8,2 C 26,4 C 7,9 km/h (2 Bft)
15.04.2015 15:00 23,3 C 21,8 C 25,2 C 26,4 C 26,4 C 3,1 C 37 % 36 % 82 % 1017,2 hPa 0,0 l/m 9,3 km/h (2 Bft) W-SW 247 0 min 0,2 UV-I 7,8 C 26,4 C 10,0 km/h (2 Bft)
15.04.2015 15:05 23,2 C 21,9 C 25,0 C 26,3 C 26,3 C 3,1 C 36 % 36 % 82 % 1017,2 hPa 0,0 l/m 9,2 km/h (2 Bft) S 180 0 min 0,2 UV-I 7,3 C 26,3 C 4,7 km/h (1 Bft)
15.04.2015 15:10 23,2 C 21,9 C 24,6 C 26,5 C 26,5 C 3,3 C 34 % 35 % 87 % 1017,2 hPa 0,0 l/m 10,0 km/h (2 Bft) W-SW 247 5 min 0,2 UV-I 6,5 C 26,5 C 12,4 km/h (3 Bft)
15.04.2015 15:15 23,2 C 22,0 C 24,1 C 26,2 C 26,2 C 3,0 C 34 % 36 % 79 % 1017,2 hPa 0,0 l/m 11,6 km/h (2 Bft) SW 225 0 min 0,2 UV-I 6,5 C 26,2 C 10,8 km/h (2 Bft)
15.04.2015 15:20 23,3 C 22,0 C 23,9 C 26,1 C 26,1 C 2,8 C 35 % 38 % 74 % 1016,6 hPa 0,0 l/m 11,3 km/h (2 Bft) SW 225 0 min 0,2 UV-I 7,0 C 26,1 C 9,5 km/h (2 Bft)
15.04.2015 15:25 23,6 C 22,0 C 23,9 C 26,8 C 26,8 C 3,2 C 36 % 38 % 84 % 1016,6 hPa 0,0 l/m 8,2 km/h (2 Bft) W-SW 247 0 min 0,1 UV-I 7,6 C 26,8 C 9,7 km/h (2 Bft)
15.04.2015 15:30 23,6 C 22,1 C 23,6 C 26,9 C 26,9 C 3,3 C 36 % 39 % 87 % 1016,6 hPa 0,0 l/m 7,4 km/h (2 Bft) W 270 5 min 0,1 UV-I 7,6 C 26,9 C 10,9 km/h (2 Bft)
15.04.2015 15:35 23,7 C 22,1 C 23,7 C 26,8 C 26,8 C 3,1 C 36 % 39 % 82 % 1016,6 hPa 0,0 l/m 8,9 km/h (2 Bft) SO 135 0 min 0,1 UV-I 7,7 C 26,8 C 10,1 km/h (2 Bft)
15.04.2015 15:42 23,7 C 22,2 C 23,4 C 26,9 C 26,9 C 3,2 C 37 % 40 % 84 % 1016,6 hPa 0,0 l/m 8,2 km/h (2 Bft) N 0 0 min 0,1 UV-I 8,1 C 26,9 C 6,0 km/h (2 Bft)
15.04.2015 15:50 23,9 C 22,2 C 23,5 C 27,1 C 27,1 C 3,2 C 36 % 40 % 84 % 1016,6 hPa 0,0 l/m 8,2 km/h (2 Bft) W-SW 247 0 min 0,1 UV-I 7,9 C 27,1 C 13,2 km/h (3 Bft)
15.04.2015 15:55 24,0 C 22,3 C 23,4 C 27,2 C 27,2 C 3,2 C 34 % 39 % 84 % 1016,6 hPa 0,0 l/m 8,0 km/h (2 Bft) SW 225 0 min 0,1 UV-I 7,2 C 27,2 C 10,6 km/h (2 Bft)
15.04.2015 16:00 24,2 C 22,3 C 23,5 C 27,2 C 27,2 C 3,0 C 36 % 41 % 79 % 1016,1 hPa 0,0 l/m 8,0 km/h (2 Bft) W-SW 247 0 min 0,1 UV-I 8,2 C 27,2 C 24,8 km/h (4 Bft)
15.04.2015 16:05 24,3 C 22,3 C 23,5 C 27,3 C 27,3 C 3,0 C 34 % 39 % 79 % 1016,1 hPa 0,0 l/m 9,2 km/h (2 Bft) W-SW 247 0 min 0,1 UV-I 7,4 C 27,3 C 20,3 km/h (4 Bft)
15.04.2015 16:10 24,1 C 22,4 C 23,4 C 27,1 C 27,1 C 3,0 C 36 % 40 % 79 % 1016,1 hPa 0,0 l/m 9,3 km/h (2 Bft) W-SW 247 0 min 0,1 UV-I 8,1 C 27,1 C 8,9 km/h (2 Bft)
15.04.2015 16:15 24,3 C 22,4 C 23,5 C 27,3 C 27,3 C 3,0 C 33 % 40 % 79 % 1016,1 hPa 0,0 l/m 8,5 km/h (2 Bft) W-SW 247 0 min 0,1 UV-I 7,0 C 27,3 C 13,7 km/h (3 Bft)
15.04.2015 16:20 24,1 C 22,4 C 23,4 C 27,3 C 27,3 C 3,2 C 34 % 40 % 84 % 1015,9 hPa 0,0 l/m 7,1 km/h (2 Bft) SO 135 0 min 0,1 UV-I 7,2 C 27,3 C 4,7 km/h (1 Bft)
15.04.2015 16:25 24,3 C 22,5 C 23,4 C 27,5 C 27,5 C 3,2 C 32 % 38 % 84 % 1015,9 hPa 0,0 l/m 6,9 km/h (2 Bft) SW 225 0 min 0,1 UV-I 6,5 C 27,5 C 6,9 km/h (2 Bft)
15.04.2015 16:30 24,2 C 22,5 C 23,5 C 27,6 C 27,6 C 3,4 C 32 % 37 % 89 % 1015,9 hPa 0,0 l/m 6,9 km/h (2 Bft) W-SW 247 5 min 0,0 UV-I 6,5 C 27,6 C 6,0 km/h (2 Bft)
15.04.2015 16:35 24,0 C 22,5 C 23,5 C 27,3 C 27,3 C 3,3 C 32 % 37 % 87 % 1015,9 hPa 0,0 l/m 8,9 km/h (2 Bft) W 270 5 min 0,0 UV-I 6,3 C 27,3 C 10,1 km/h (2 Bft)
15.04.2015 16:40 24,0 C 22,6 C 23,4 C 27,2 C 27,2 C 3,2 C 33 % 38 % 84 % 1015,1 hPa 0,0 l/m 8,4 km/h (2 Bft) W-SW 247 0 min 0,0 UV-I 6,7 C 27,2 C 6,3 km/h (2 Bft)
15.04.2015 16:45 24,1 C 22,6 C 23,5 C 27,3 C 27,3 C 3,2 C 33 % 38 % 84 % 1015,1 hPa 0,0 l/m 7,4 km/h (2 Bft) SW 225 0 min 0,0 UV-I 6,8 C 27,3 C 7,7 km/h (2 Bft)
15.04.2015 16:50 24,1 C 22,6 C 23,6 C 27,1 C 27,1 C 3,0 C 32 % 38 % 79 % 1015,1 hPa 0,0 l/m 8,5 km/h (2 Bft) SW 225 0 min 0,0 UV-I 6,4 C 27,1 C 17,4 km/h (3 Bft)
15.04.2015 16:55 24,0 C 22,6 C 23,6 C 26,9 C 26,9 C 2,9 C 32 % 37 % 76 % 1015,1 hPa 0,0 l/m 9,3 km/h (2 Bft) W-SW 247 0 min 0,0 UV-I 6,3 C 26,9 C 12,7 km/h (3 Bft)
15.04.2015 17:00 24,0 C 22,7 C 23,9 C 27,1 C 27,1 C 3,1 C 33 % 37 % 82 % 1015,3 hPa 0,0 l/m 8,2 km/h (2 Bft) SW 225 0 min 0,0 UV-I 6,7 C 27,1 C 9,5 km/h (2 Bft)
15.04.2015 17:05 24,0 C 22,8 C 24,4 C 27,0 C 27,0 C 3,0 C 32 % 37 % 79 % 1015,3 hPa 0,0 l/m 7,7 km/h (2 Bft) S-SW 202 0 min 0,0 UV-I 6,3 C 27,0 C 8,9 km/h (2 Bft)
15.04.2015 17:10 23,8 C 22,8 C 24,9 C 26,9 C 26,9 C 3,1 C 34 % 37 % 82 % 1015,3 hPa 0,0 l/m 8,2 km/h (2 Bft) W-SW 247 0 min 0,0 UV-I 7,0 C 26,9 C 7,6 km/h (2 Bft)
15.04.2015 17:15 24,0 C 22,9 C 25,1 C 27,1 C 27,1 C 3,1 C 33 % 36 % 82 % 1015,3 hPa 0,0 l/m 7,6 km/h (2 Bft) W 270 0 min 0,0 UV-I 6,7 C 27,1 C 8,4 km/h (2 Bft)
15.04.2015 17:20 24,1 C 22,9 C 25,5 C 27,1 C 27,1 C 3,0 C 33 % 36 % 79 % 1014,9 hPa 0,0 l/m 7,1 km/h (2 Bft) W-SW 247 0 min 0,0 UV-I 6,8 C 27,1 C 8,0 km/h (2 Bft)
15.04.2015 17:25 24,1 C 22,9 C 25,5 C 27,3 C 27,3 C 3,2 C 34 % 35 % 84 % 1014,9 hPa 0,0 l/m 6,8 km/h (2 Bft) SW 225 0 min 0,0 UV-I 7,2 C 27,3 C 3,4 km/h (1 Bft)
15.04.2015 17:30 24,1 C 22,9 C 25,5 C 27,4 C 27,4 C 3,3 C 33 % 35 % 87 % 1014,9 hPa 0,0 l/m 6,8 km/h (2 Bft) W-SW 247 5 min 0,0 UV-I 6,8 C 27,4 C 11,4 km/h (2 Bft)
15.04.2015 17:35 24,0 C 22,9 C 25,3 C 27,2 C 27,2 C 3,2 C 33 % 35 % 84 % 1014,9 hPa 0,0 l/m 7,2 km/h (2 Bft) W-SW 247 0 min 0,0 UV-I 6,7 C 27,2 C 10,5 km/h (2 Bft)
15.04.2015 17:40 24,1 C 22,9 C 25,6 C 27,2 C 27,2 C 3,1 C 33 % 35 % 82 % 1014,6 hPa 0,0 l/m 7,2 km/h (2 Bft) SW 225 0 min 0,0 UV-I 6,8 C 27,2 C 12,2 km/h (2 Bft)
15.04.2015 17:45 24,0 C 22,9 C 25,7 C 27,0 C 27,0 C 3,0 C 33 % 35 % 79 % 1014,6 hPa 0,0 l/m 6,9 km/h (2 Bft) W-SW 247 0 min 0,0 UV-I 6,7 C 27,0 C 7,7 km/h (2 Bft)
15.04.2015 17:50 24,1 C 22,9 C 25,0 C 27,0 C 27,0 C 2,9 C 33 % 35 % 76 % 1014,6 hPa 0,0 l/m 7,2 km/h (2 Bft) S 180 0 min 0,0 UV-I 6,8 C 27,0 C 4,3 km/h (1 Bft)
15.04.2015 17:55 24,1 C 23,0 C 24,4 C 27,0 C 27,0 C 2,9 C 34 % 36 % 76 % 1014,6 hPa 0,0 l/m 6,6 km/h (2 Bft) W-SW 247 0 min 0,0 UV-I 7,2 C 27,0 C 6,9 km/h (2 Bft)
15.04.2015 18:00 24,2 C 23,0 C 24,5 C 27,0 C 27,0 C 2,8 C 33 % 37 % 74 % 1014,6 hPa 0,0 l/m 6,6 km/h (2 Bft) W-SW 247 0 min 0,0 UV-I 6,9 C 27,0 C 8,4 km/h (2 Bft)
15.04.2015 18:05 24,1 C 23,0 C 24,5 C 26,9 C 26,9 C 2,8 C 33 % 37 % 74 % 1014,6 hPa 0,0 l/m 6,8 km/h (2 Bft) W-SW 247 0 min 0,0 UV-I 6,8 C 26,9 C 10,6 km/h (2 Bft)
15.04.2015 18:10 24,0 C 23,0 C 24,2 C 26,9 C 26,9 C 2,9 C 33 % 36 % 76 % 1014,6 hPa 0,0 l/m 6,4 km/h (2 Bft) W-SW 247 5 min 0,0 UV-I 6,7 C 26,9 C 11,3 km/h (2 Bft)
15.04.2015 18:15 23,8 C 23,0 C 23,6 C 26,8 C 26,8 C 3,0 C 33 % 37 % 79 % 1014,6 hPa 0,0 l/m 7,1 km/h (2 Bft) W 270 5 min 0,0 UV-I 6,6 C 26,8 C 9,0 km/h (2 Bft)
15.04.2015 18:20 23,8 C 23,0 C 23,4 C 26,6 C 26,6 C 2,8 C 33 % 37 % 74 % 1014,5 hPa 0,0 l/m 6,9 km/h (2 Bft) SW 225 5 min 0,0 UV-I 6,6 C 26,6 C 6,4 km/h (2 Bft)
15.04.2015 18:25 23,8 C 23,1 C 23,1 C 26,3 C 26,3 C 2,5 C 33 % 38 % 66 % 1014,5 hPa 0,0 l/m 7,2 km/h (2 Bft) W-SW 247 5 min 0,0 UV-I 6,6 C 26,3 C 7,4 km/h (2 Bft)
15.04.2015 18:30 23,9 C 23,1 C 22,9 C 26,2 C 26,2 C 2,3 C 34 % 39 % 61 % 1014,5 hPa 0,0 l/m 6,6 km/h (2 Bft) S 180 0 min 0,0 UV-I 7,1 C 26,2 C 4,0 km/h (1 Bft)
15.04.2015 18:35 23,8 C 23,1 C 22,6 C 26,1 C 26,1 C 2,3 C 32 % 39 % 61 % 1014,5 hPa 0,0 l/m 6,0 km/h (2 Bft) W 270 5 min 0,0 UV-I 6,1 C 26,1 C 6,4 km/h (2 Bft)
15.04.2015 18:42 23,5 C 23,1 C 22,3 C 25,5 C 25,5 C 2,0 C 33 % 39 % 53 % 1014,1 hPa 0,0 l/m 7,2 km/h (2 Bft) N 0 0 min 0,0 UV-I 6,3 C 25,5 C 9,3 km/h (2 Bft)
15.04.2015 18:50 23,5 C 23,1 C 22,1 C 25,4 C 25,4 C 1,9 C 33 % 39 % 50 % 1014,1 hPa 0,0 l/m 6,8 km/h (2 Bft) SW 225 8 min 0,0 UV-I 6,3 C 25,4 C 6,0 km/h (2 Bft)
15.04.2015 18:55 23,5 C 23,1 C 21,8 C 25,1 C 25,1 C 1,6 C 34 % 40 % 42 % 1014,1 hPa 0,0 l/m 5,8 km/h (2 Bft) SW 225 0 min 0,0 UV-I 6,7 C 25,1 C 5,6 km/h (1 Bft)
15.04.2015 19:00 23,3 C 23,1 C 21,6 C 25,0 C 25,0 C 1,7 C 34 % 40 % 45 % 1014,1 hPa 0,0 l/m 5,3 km/h (1 Bft) W-SW 247 5 min 0,0 UV-I 6,6 C 25,0 C 6,0 km/h (2 Bft)
15.04.2015 19:05 23,3 C 23,2 C 21,4 C 24,9 C 24,9 C 1,6 C 34 % 41 % 42 % 1014,1 hPa 0,0 l/m 5,3 km/h (1 Bft) W-SW 247 5 min 0,0 UV-I 6,6 C 24,9 C 7,4 km/h (2 Bft)
15.04.2015 19:10 23,3 C 23,2 C 21,3 C 24,8 C 24,8 C 1,5 C 34 % 41 % 39 % 1014,1 hPa 0,0 l/m 5,1 km/h (1 Bft) S-SW 202 5 min 0,0 UV-I 6,6 C 24,8 C 6,1 km/h (2 Bft)
15.04.2015 19:15 23,1 C 23,2 C 21,2 C 24,4 C 24,4 C 1,3 C 34 % 41 % 34 % 1014,1 hPa 0,0 l/m 5,5 km/h (1 Bft) SW 225 5 min 0,0 UV-I 6,4 C 24,4 C 8,7 km/h (2 Bft)
15.04.2015 19:20 23,0 C 23,2 C 21,1 C 24,2 C 24,2 C 1,2 C 35 % 42 % 32 % 1013,9 hPa 0,0 l/m 5,3 km/h (1 Bft) W-SW 247 5 min 0,0 UV-I 6,7 C 24,2 C 5,1 km/h (1 Bft)
15.04.2015 19:25 22,9 C 23,2 C 20,7 C 23,8 C 23,8 C 0,9 C 35 % 42 % 24 % 1013,9 hPa 0,0 l/m 4,8 km/h (1 Bft) S-SW 202 5 min 0,0 UV-I 6,6 C 23,8 C 3,7 km/h (1 Bft)
15.04.2015 19:30 22,7 C 23,2 C 20,4 C 23,1 C 23,1 C 0,4 C 35 % 42 % 11 % 1013,9 hPa 0,0 l/m 4,5 km/h (1 Bft) S 180 0 min 0,0 UV-I 6,4 C 23,1 C 4,7 km/h (1 Bft)
15.04.2015 19:35 22,3 C 23,3 C 19,9 C 22,2 C 21,9 C 0,0 C 35 % 43 % 0 % 1013,9 hPa 0,0 l/m 3,7 km/h (1 Bft) SW 225 0 min 0,0 UV-I 6,1 C 21,9 C 4,2 km/h (1 Bft)
15.04.2015 19:40 21,9 C 23,3 C 19,6 C 21,7 C 21,2 C 0,0 C 35 % 44 % 0 % 1013,8 hPa 0,0 l/m 3,7 km/h (1 Bft) W-SW 247 0 min 0,0 UV-I 5,7 C 21,2 C 6,3 km/h (2 Bft)
15.04.2015 19:45 21,6 C 23,3 C 19,4 C 21,2 C 20,4 C 0,0 C 36 % 44 % 0 % 1013,8 hPa 0,0 l/m 4,8 km/h (1 Bft) W-SW 247 0 min 0,0 UV-I 5,9 C 20,4 C 7,9 km/h (2 Bft)
15.04.2015 19:50 21,5 C 23,3 C 19,3 C 21,0 C 20,1 C 0,0 C 36 % 44 % 0 % 1013,8 hPa 0,0 l/m 5,0 km/h (1 Bft) SW 225 0 min 0,0 UV-I 5,8 C 20,1 C 5,0 km/h (1 Bft)
15.04.2015 19:55 21,1 C 23,3 C 18,9 C 20,6 C 19,7 C 0,0 C 36 % 44 % 0 % 1013,8 hPa 0,0 l/m 4,7 km/h (1 Bft) W-SW 247 0 min 0,1 UV-I 5,4 C 19,7 C 3,7 km/h (1 Bft)
15.04.2015 20:00 20,9 C 23,3 C 18,6 C 20,4 C 19,4 C 0,0 C 37 % 45 % 0 % 1013,9 hPa 0,0 l/m 4,2 km/h (1 Bft) SW 225 0 min 0,0 UV-I 5,7 C 19,4 C 6,1 km/h (2 Bft)
15.04.2015 20:05 20,5 C 23,3 C 18,3 C 20,0 C 18,9 C 0,0 C 38 % 46 % 0 % 1013,9 hPa 0,0 l/m 3,9 km/h (1 Bft) W-SW 247 0 min 0,0 UV-I 5,7 C 18,9 C 4,0 km/h (1 Bft)
15.04.2015 20:10 20,4 C 23,3 C 18,0 C 19,8 C 18,7 C 0,0 C 38 % 46 % 0 % 1013,9 hPa 0,0 l/m 3,9 km/h (1 Bft) W-SW 247 0 min 0,0 UV-I 5,6 C 18,7 C 4,7 km/h (1 Bft)
15.04.2015 20:15 20,0 C 23,3 C 17,7 C 19,4 C 18,2 C 0,0 C 39 % 47 % 0 % 1013,9 hPa 0,0 l/m 2,7 km/h (1 Bft) W-SW 247 0 min 0,0 UV-I 5,6 C 18,2 C 1,8 km/h (1 Bft)
15.04.2015 20:20 19,7 C 23,3 C 17,3 C 19,1 C 17,8 C 0,0 C 39 % 48 % 0 % 1014,0 hPa 0,0 l/m 1,8 km/h (1 Bft) SO 135 0 min 0,0 UV-I 5,4 C 17,8 C 0,0 km/h (0 Bft)
15.04.2015 20:25 19,3 C 23,3 C 16,4 C 18,6 C 17,2 C 0,0 C 40 % 49 % 0 % 1014,0 hPa 0,0 l/m 0,5 km/h (0 Bft) O 90 0 min 0,0 UV-I 5,4 C 17,2 C 0,0 km/h (0 Bft)
15.04.2015 20:30 18,9 C 23,3 C 16,0 C 18,2 C 16,7 C 0,0 C 42 % 51 % 0 % 1014,0 hPa 0,0 l/m 0,0 km/h (0 Bft) S-SW 202 0 min 0,0 UV-I 5,7 C 16,7 C 0,0 km/h (0 Bft)
15.04.2015 20:35 18,5 C 23,3 C 15,7 C 17,7 C 16,1 C 0,0 C 43 % 52 % 0 % 1014,0 hPa 0,0 l/m 0,0 km/h (0 Bft) W 270 0 min 0,0 UV-I 5,7 C 16,1 C 0,0 km/h (0 Bft)
15.04.2015 20:40 18,3 C 23,3 C 15,4 C 17,5 C 15,8 C 0,0 C 44 % 52 % 0 % 1014,2 hPa 0,0 l/m 0,0 km/h (0 Bft) W-SW 247 0 min 0,0 UV-I 5,8 C 15,8 C 0,0 km/h (0 Bft)
15.04.2015 20:45 17,8 C 23,3 C 14,9 C 17,0 C 15,3 C 0,0 C 44 % 53 % 0 % 1014,2 hPa 0,0 l/m 0,0 km/h (0 Bft) W-SW 247 0 min 0,0 UV-I 5,4 C 15,3 C 0,0 km/h (0 Bft)
15.04.2015 20:50 17,7 C 23,3 C 14,8 C 16,9 C 15,2 C 0,0 C 45 % 54 % 0 % 1014,2 hPa 0,0 l/m 0,0 km/h (0 Bft) S-SW 202 0 min 0,0 UV-I 5,6 C 15,2 C 0,0 km/h (0 Bft)
15.04.2015 20:55 17,2 C 23,3 C 14,5 C 16,5 C 15,0 C 0,0 C 45 % 55 % 0 % 1014,2 hPa 0,0 l/m 0,3 km/h (0 Bft) S 180 0 min 0,0 UV-I 5,2 C 15,0 C 3,5 km/h (1 Bft)
15.04.2015 21:00 17,1 C 23,4 C 14,3 C 16,4 C 15,0 C 0,0 C 46 % 56 % 0 % 1014,1 hPa 0,0 l/m 0,5 km/h (0 Bft) W-SW 247 0 min 0,0 UV-I 5,4 C 15,0 C 0,0 km/h (0 Bft)
15.04.2015 21:05 16,8 C 23,3 C 14,1 C 16,1 C 14,6 C 0,0 C 47 % 56 % 0 % 1014,1 hPa 0,0 l/m 0,5 km/h (0 Bft) O-SO 112 0 min 0,2 UV-I 5,4 C 14,6 C 0,0 km/h (0 Bft)
15.04.2015 21:10 16,5 C 23,3 C 14,0 C 15,8 C 14,5 C 0,0 C 47 % 57 % 0 % 1014,1 hPa 0,0 l/m 0,0 km/h (0 Bft) S-SO 157 0 min 0,0 UV-I 5,2 C 14,5 C 0,0 km/h (0 Bft)
15.04.2015 21:15 16,2 C 23,3 C 13,6 C 15,5 C 14,2 C 0,0 C 48 % 58 % 0 % 1014,1 hPa 0,0 l/m 0,0 km/h (0 Bft) O-NO 67 0 min 0,2 UV-I 5,2 C 14,2 C 0,0 km/h (0 Bft)
15.04.2015 21:20 16,1 C 23,3 C 13,3 C 15,4 C 14,0 C 0,0 C 49 % 59 % 0 % 1014,1 hPa 0,0 l/m 0,0 km/h (0 Bft) W-SW 247 0 min 0,0 UV-I 5,4 C 14,0 C 0,0 km/h (0 Bft)
15.04.2015 21:25 15,6 C 23,3 C 13,2 C 14,9 C 13,6 C 0,0 C 50 % 60 % 0 % 1014,1 hPa 0,0 l/m 0,0 km/h (0 Bft) O-SO 112 0 min 0,0 UV-I 5,2 C 13,6 C 0,0 km/h (0 Bft)
15.04.2015 21:30 15,4 C 23,3 C 13,0 C 14,8 C 13,5 C 0,0 C 51 % 61 % 0 % 1014,1 hPa 0,0 l/m 0,0 km/h (0 Bft) O-NO 67 0 min 0,0 UV-I 5,3 C 13,5 C 1,6 km/h (1 Bft)
15.04.2015 21:35 15,2 C 23,3 C 12,8 C 14,6 C 13,4 C 0,0 C 52 % 61 % 0 % 1014,1 hPa 0,0 l/m 0,2 km/h (0 Bft) NW 315 0 min 0,5 UV-I 5,4 C 13,4 C 0,0 km/h (0 Bft)
15.04.2015 21:41 14,7 C 23,2 C 12,5 C 14,2 C 13,1 C 0,0 C 53 % 62 % 0 % 1014,2 hPa 0,0 l/m 0,0 km/h (0 Bft) N 0 0 min 0,1 UV-I 5,2 C 13,1 C 0,0 km/h (0 Bft)
15.04.2015 21:50 14,7 C 23,2 C 12,3 C 14,1 C 13,0 C 0,0 C 54 % 63 % 0 % 1014,2 hPa 0,0 l/m 0,0 km/h (0 Bft) O-NO 67 0 min 0,7 UV-I 5,5 C 13,0 C 0,0 km/h (0 Bft)
15.04.2015 21:55 14,4 C 23,2 C 12,0 C 13,8 C 12,7 C 0,0 C 54 % 63 % 0 % 1014,2 hPa 0,0 l/m 0,0 km/h (0 Bft) SO 135 0 min 0,7 UV-I 5,2 C 12,7 C 0,0 km/h (0 Bft)
15.04.2015 22:00 14,4 C 23,3 C 12,0 C 13,8 C 12,7 C 0,0 C 55 % 64 % 0 % 1014,0 hPa 0,0 l/m 0,0 km/h (0 Bft) O-NO 67 0 min 0,8 UV-I 5,5 C 12,7 C 0,0 km/h (0 Bft)
15.04.2015 22:05 14,3 C 23,3 C 12,0 C 13,7 C 12,5 C 0,0 C 55 % 64 % 0 % 1014,0 hPa 0,0 l/m 0,0 km/h (0 Bft) S 180 0 min 0,6 UV-I 5,4 C 12,5 C 0,0 km/h (0 Bft)
15.04.2015 22:10 14,1 C 23,3 C 11,9 C 13,5 C 12,4 C 0,0 C 55 % 64 % 0 % 1014,0 hPa 0,0 l/m 0,0 km/h (0 Bft) O 90 0 min 0,8 UV-I 5,2 C 12,4 C 0,0 km/h (0 Bft)
15.04.2015 22:15 13,9 C 23,2 C 11,9 C 13,3 C 12,2 C 0,0 C 56 % 65 % 0 % 1014,0 hPa 0,0 l/m 0,0 km/h (0 Bft) O-NO 67 0 min 0,7 UV-I 5,3 C 12,2 C 0,0 km/h (0 Bft)
15.04.2015 22:20 13,8 C 23,2 C 11,9 C 13,2 C 12,1 C 0,0 C 56 % 65 % 0 % 1014,3 hPa 0,0 l/m 0,0 km/h (0 Bft) O-SO 112 0 min 0,4 UV-I 5,2 C 12,1 C 0,0 km/h (0 Bft)
15.04.2015 22:25 13,6 C 23,2 C 11,7 C 13,1 C 12,2 C 0,0 C 57 % 66 % 0 % 1014,3 hPa 0,0 l/m 0,0 km/h (0 Bft) O-NO 67 0 min 0,8 UV-I 5,2 C 12,2 C 0,0 km/h (0 Bft)
15.04.2015 22:30 13,5 C 23,2 C 11,6 C 13,1 C 12,2 C 0,0 C 58 % 66 % 0 % 1014,3 hPa 0,0 l/m 0,0 km/h (0 Bft) N-NO 22 0 min 0,8 UV-I 5,4 C 12,2 C 0,0 km/h (0 Bft)
15.04.2015 22:35 13,4 C 23,2 C 11,6 C 13,0 C 12,2 C 0,0 C 58 % 67 % 0 % 1014,3 hPa 0,0 l/m 0,0 km/h (0 Bft) N-NO 22 0 min 1,5 UV-I 5,3 C 12,2 C 0,0 km/h (0 Bft)
15.04.2015 22:40 13,3 C 23,2 C 11,6 C 12,9 C 12,2 C 0,0 C 58 % 67 % 0 % 1013,8 hPa 0,0 l/m 0,0 km/h (0 Bft) O-NO 67 0 min 1,1 UV-I 5,2 C 12,2 C 0,0 km/h (0 Bft)
15.04.2015 22:45 13,3 C 23,1 C 11,7 C 12,9 C 12,1 C 0,0 C 58 % 67 % 0 % 1013,8 hPa 0,0 l/m 0,0 km/h (0 Bft) NW 315 0 min 1,1 UV-I 5,2 C 12,1 C 0,0 km/h (0 Bft)
15.04.2015 22:50 13,2 C 23,1 C 11,7 C 12,8 C 12,1 C 0,0 C 58 % 67 % 0 % 1013,8 hPa 0,0 l/m 0,0 km/h (0 Bft) N 360 0 min 1,7 UV-I 5,1 C 12,1 C 0,0 km/h (0 Bft)
15.04.2015 22:55 13,4 C 23,1 C 12,1 C 13,0 C 12,3 C 0,0 C 60 % 67 % 0 % 1013,8 hPa 0,0 l/m 1,8 km/h (1 Bft) N 360 0 min 2,0 UV-I 5,8 C 12,3 C 3,4 km/h (1 Bft)
15.04.2015 23:00 13,5 C 23,1 C 12,1 C 13,2 C 12,5 C 0,0 C 58 % 66 % 0 % 1013,9 hPa 0,0 l/m 2,6 km/h (1 Bft) W-NW 292 0 min 4,1 UV-I 5,4 C 12,5 C 2,7 km/h (1 Bft)
15.04.2015 23:05 13,7 C 23,1 C 12,4 C 13,4 C 12,8 C 0,0 C 58 % 65 % 0 % 1013,9 hPa 0,0 l/m 1,3 km/h (1 Bft) S 180 0 min 5,9 UV-I 5,6 C 12,8 C 0,0 km/h (0 Bft)
15.04.2015 23:10 13,8 C 23,1 C 12,2 C 13,4 C 12,7 C 0,0 C 57 % 65 % 0 % 1013,9 hPa 0,0 l/m 0,5 km/h (0 Bft) S 180 0 min 4,1 UV-I 5,4 C 12,7 C 0,0 km/h (0 Bft)
15.04.2015 23:15 13,6 C 23,1 C 11,8 C 13,2 C 12,5 C 0,0 C 58 % 66 % 0 % 1013,9 hPa 0,0 l/m 0,0 km/h (0 Bft) O 90 0 min 4,1 UV-I 5,5 C 12,5 C 0,0 km/h (0 Bft)
15.04.2015 23:20 13,5 C 23,0 C 11,7 C 13,1 C 12,3 C 0,0 C 58 % 66 % 0 % 1014,2 hPa 0,0 l/m 0,0 km/h (0 Bft) O-NO 67 0 min 1,1 UV-I 5,4 C 12,3 C 0,0 km/h (0 Bft)
15.04.2015 23:25 13,5 C 23,0 C 11,6 C 13,1 C 12,2 C 0,0 C 58 % 67 % 0 % 1014,2 hPa 0,0 l/m 0,0 km/h (0 Bft) O-NO 67 0 min 1,6 UV-I 5,4 C 12,2 C 0,0 km/h (0 Bft)
15.04.2015 23:30 13,2 C 23,0 C 11,3 C 12,8 C 12,1 C 0,0 C 59 % 67 % 0 % 1014,2 hPa 0,0 l/m 0,0 km/h (0 Bft) O-NO 67 0 min 1,5 UV-I 5,4 C 12,1 C 0,0 km/h (0 Bft)
15.04.2015 23:35 13,1 C 23,0 C 11,3 C 12,8 C 12,1 C 0,0 C 59 % 68 % 0 % 1014,2 hPa 0,0 l/m 0,5 km/h (0 Bft) S 180 0 min 1,5 UV-I 5,3 C 12,1 C 0,0 km/h (0 Bft)
15.04.2015 23:40 13,1 C 23,0 C 11,2 C 12,8 C 12,1 C 0,0 C 59 % 68 % 0 % 1014,1 hPa 0,0 l/m 0,8 km/h (0 Bft) S-SW 202 0 min 1,5 UV-I 5,3 C 12,1 C 1,8 km/h (1 Bft)
15.04.2015 23:45 12,9 C 23,0 C 11,3 C 12,6 C 12,0 C 0,0 C 59 % 68 % 0 % 1014,1 hPa 0,0 l/m 0,3 km/h (0 Bft) W-SW 247 0 min 1,7 UV-I 5,1 C 12,0 C 0,0 km/h (0 Bft)
15.04.2015 23:50 12,9 C 23,0 C 11,3 C 12,6 C 12,0 C 0,0 C 60 % 69 % 0 % 1014,1 hPa 0,0 l/m 0,2 km/h (0 Bft) W-SW 247 0 min 1,9 UV-I 5,3 C 12,0 C 0,0 km/h (0 Bft)
15.04.2015 23:55 12,6 C 22,9 C 11,2 C 12,3 C 11,8 C 0,0 C 61 % 70 % 0 % 1014,1 hPa 0,0 l/m 0,2 km/h (0 Bft) SW 225 0 min 3,2 UV-I 5,3 C 11,8 C 0,0 km/h (0 Bft)
16.04.2015 00:00 12,5 C 22,9 C 11,2 C 12,2 C 11,6 C 0,0 C 61 % 70 % 0 % 1014,2 hPa 0,0 l/m 0,2 km/h (0 Bft) W-SW 247 0 min 3,7 UV-I 5,2 C 11,6 C 0,0 km/h (0 Bft)
16.04.2015 00:05 12,3 C 22,9 C 11,2 C 12,0 C 11,5 C 0,0 C 63 % 70 % 0 % 1014,2 hPa 0,0 l/m 0,3 km/h (0 Bft) W-SW 247 0 min 3,9 UV-I 5,5 C 11,5 C 0,0 km/h (0 Bft)
16.04.2015 00:10 12,1 C 22,9 C 11,1 C 11,8 C 11,2 C 0,0 C 63 % 70 % 0 % 1014,2 hPa 0,0 l/m 0,3 km/h (0 Bft) W 270 0 min 3,9 UV-I 5,3 C 11,2 C 0,0 km/h (0 Bft)
16.04.2015 00:15 12,0 C 22,9 C 10,9 C 11,7 C 11,0 C 0,0 C 64 % 71 % 0 % 1014,2 hPa 0,0 l/m 0,0 km/h (0 Bft) W-SW 247 0 min 3,3 UV-I 5,4 C 11,0 C 0,0 km/h (0 Bft)
16.04.2015 00:20 11,9 C 22,9 C 10,9 C 11,5 C 10,8 C 0,0 C 64 % 71 % 0 % 1014,0 hPa 0,0 l/m 0,2 km/h (0 Bft) O-SO 112 0 min 3,0 UV-I 5,3 C 10,8 C 0,0 km/h (0 Bft)
16.04.2015 00:25 11,7 C 22,8 C 10,8 C 11,4 C 10,7 C 0,0 C 64 % 71 % 0 % 1014,0 hPa 0,0 l/m 0,2 km/h (0 Bft) W-SW 247 0 min 2,7 UV-I 5,1 C 10,7 C 0,0 km/h (0 Bft)
16.04.2015 00:30 11,6 C 22,9 C 10,8 C 11,3 C 10,6 C 0,0 C 65 % 71 % 0 % 1014,0 hPa 0,0 l/m 0,0 km/h (0 Bft) SW 225 0 min 1,9 UV-I 5,2 C 10,6 C 0,0 km/h (0 Bft)
16.04.2015 00:35 11,6 C 22,9 C 10,7 C 11,3 C 10,6 C 0,0 C 66 % 72 % 0 % 1014,0 hPa 0,0 l/m 0,2 km/h (0 Bft) SW 225 0 min 1,8 UV-I 5,5 C 10,6 C 1,9 km/h (1 Bft)
16.04.2015 00:43 11,4 C 22,9 C 10,7 C 11,1 C 10,6 C 0,0 C 66 % 72 % 0 % 1013,9 hPa 0,0 l/m 0,2 km/h (0 Bft) N 0 0 min 3,5 UV-I 5,3 C 10,6 C 0,0 km/h (0 Bft)
16.04.2015 00:50 11,5 C 22,9 C 10,7 C 11,2 C 10,6 C 0,0 C 67 % 73 % 0 % 1013,9 hPa 0,0 l/m 0,2 km/h (0 Bft) S-SW 202 0 min 3,5 UV-I 5,6 C 10,6 C 0,0 km/h (0 Bft)
_ Min-Zeit 07:10 09:05 06:35 06:55 06:42 01:00 16:25 14:05 01:00 19:40 - 01:00 - - - 10:15 07:10 06:42 01:00
Minimum _ 6,7 C 20,3 C 6,4 C 6,9 C 6,5 C 0,0 C 32 % 32 % 0 % 1013,8 hPa - 0,0 km/h (0 Bft) - - - 0,0 UV-I 3,7 C 6,5 C 0,0 km/h (0 Bft)
_ Max-Zeit 16:05 21:00 14:00 16:30 16:30 09:10 07:25 07:05 07:10 01:00 01:00 10:35 - - 12:50 08:15 12:00 16:30 14:05
Maximum _ 24,3 C 23,4 C 26,6 C 27,6 C 27,6 C 7,4 C 82 % 86 % 100 % 1021,9 hPa 0,0 l/m 12,9 km/h
SW (3 Bft)
- - 9 min 25,5 UV-I 9,7 C 27,6 C 25,9 km/h
SW (4 Bft)
Durchschnitt _ 15,8 C 21,7 C 15,5 C 17,1 C 16,7 C 1,5 C 58 % 62 % 38 % 1017,9 hPa #0,0 l/m 4,1 km/h (1 Bft) W-SW - #0 min. 3,2 UV-I 6,6 C 16,7 C 5,2 km/h (1 Bft)
2015 www.wetterstation-wechselburg.de